Location: Dürabuch
(48.2640°N, 11.2185°E)
Time: 21:44:19
(UTC+00:00)

Geosat - Pass Details

Date: 23 May 2024
Orbit: 760 x 763 km, 108.1° (Epoch: 14 June)

Event Time Altitude Azimuth Distance (km) Brightness Sun altitude
Rises 02:23:51 0° 151° (SSE) 3,211 7.1 -8.8°
Reaches altitude 10° 02:26:06 10° 152° (SSE) 2,290 6.3 -8.6°
Maximum altitude 02:31:06 83° 240° (WSW) 774 4.0 -8.0°
Drops below altitude 10° 02:36:09 10° 330° (NNW) 2,308 6.7 -7.4°
Sets 02:38:27 0° 331° (NNW) 3,238 7.4 -7.1°
